Date,TemperatureHighF,TemperatureAvgF,TemperatureLowF,DewpointHighF,DewpointAvgF,DewpointLowF,HumidityHigh,HumidityAvg,HumidityLow,PressureMaxIn,PressureMinIn,WindSpeedMaxMPH,WindSpeedAvgMPH,GustSpeedMaxMPH,PrecipitationSumIn
2014-1-1,43,32,19,31,23,15,93,73,42,29.32,29.09,8,2,0,0.00
2014-1-2,36,33,27,36,32,26,97,94,89,29.09,28.48,11,5,0,0.02
2014-1-3,26,17,9,26,11,2,97,80,64,29.40,28.43,21,6,0,0.01
2014-1-4,35,19,3,24,12,0,93,73,48,29.46,29.21,9,2,0,0.09
2014-1-5,54,40,26,54,37,24,99,89,74,29.21,28.67,6,2,0,0.25
2014-1-6,56,42,17,56,38,0,99,84,42,28.78,28.38,16,7,0,0.52
2014-1-7,15,9,4,-2,-7,-11,62,48,38,29.34,28.80,18,7,0,0.03
2014-1-8,29,16,7,12,2,-2,70,55,31,29.49,29.35,10,2,0,0.00
2014-1-9,37,26,21,22,17,11,90,69,46,29.55,29.41,11,2,0,0.00
2014-1-10,46,35,23,46,34,21,99,94,88,29.49,29.08,5,1,0,0.33
2014-1-11,59,53,46,59,53,46,99,99,97,29.07,28.34,14,6,0,0.43
2014-1-12,51,42,31,51,35,28,98,75,53,29.03,28.38,14,4,0,0.03
2014-1-13,53,42,29,42,36,27,98,80,62,29.06,28.83,12,4,0,0.00
2014-1-14,49,46,41,48,44,41,98,94,82,28.82,28.57,8,3,0,0.84
2014-1-15,46,40,35,43,39,35,99,97,89,28.92,28.77,4,1,0,0.00
2014-1-16,41,36,27,40,32,23,99,84,73,28.89,28.77,8,3,0,0.00
2014-1-17,48,37,24,36,32,22,98,81,59,28.90,28.76,8,2,0,0.01
2014-1-18,42,34,23,36,26,12,96,73,53,28.86,28.60,12,4,0,0.01
2014-1-19,47,32,20,27,20,12,72,61,43,28.84,28.62,9,3,0,0.00
2014-1-20,54,42,34,30,28,26,72,59,38,28.80,28.52,14,4,0,0.00
2014-1-21,34,25,13,26,20,10,90,80,67,28.83,28.65,20,8,0,0.01
2014-1-22,21,12,5,10,3,-2,88,67,47,28.96,28.65,16,6,0,0.00
2014-1-23,25,15,6,7,3,-2,72,59,42,29.25,28.95,12,4,0,0.00
2014-1-24,23,14,8,5,2,-1,70,57,37,29.34,29.07,11,4,0,0.00
2014-1-25,32,26,19,23,15,5,88,64,48,29.05,28.40,16,7,0,0.01
2014-1-26,36,27,17,32,14,3,84,57,34,28.85,28.47,12,4,0,0.00
2014-1-27,49,37,24,34,24,2,83,60,36,29.01,28.56,11,6,0,0.00
2014-1-28,24,17,13,10,-1,-5,85,45,34,29.30,29.02,10,4,0,0.00
2014-1-29,25,16,12,10,4,-2,88,63,35,29.26,29.07,10,4,0,0.01
2014-1-30,31,16,5,13,6,-1,89,65,37,29.39,29.13,5,1,0,0.00
2014-1-31,44,29,13,26,20,10,88,72,39,29.16,29.03,5,1,0,0.00